Location: Ehrensteig
(50.9667°N, 10.3000°E)
Time: 19:17:37
(UTC+00:00)

Daily predictions for brighter satellites

Satellite Brightness Start Highest point End
(mag) Time Altitude Azimuth Time Altitude Azimuth Time Altitude Azimuth
Cosmos 2173 Rocket 4.2 15:51:12 10° SSW 15:57:23 80° W 16:03:32 10° N
Cosmos 921 Rocket 3.2 15:54:59 10° SSW 15:59:21 81° WNW 16:03:50 10° NNE
Cosmos 2278 Rocket 3.3 15:56:17 10° SSE 16:00:47 25° ESE 16:05:17 10° NE
Cosmos 1441 Rocket 3.4 16:03:14 10° NNW 16:06:34 63° W 16:09:53 10° S
Cosmos 1908 Rocket 3.7 16:03:27 10° SSW 16:07:53 82° W 16:12:22 10° N
MOS 1 Rocket 4.2 16:04:24 10° ESE 16:07:57 25° ENE 16:11:39 10° N
Cosmos 1975 Rocket 3.2 16:05:31 10° N 16:09:47 52° ENE 16:14:03 10° SSE
SL-08 R/B 4.4 16:04:48 10° S 16:10:50 71° E 16:16:54 10° NNE
USA 215 3.4 16:04:20 10° ESE 16:10:54 88° SSW 16:17:30 10° WNW
ARIANE 5 R/B 2.7 16:06:51 10° SE 16:11:36 48° ENE 16:16:26 10° N
ATLAS 5 CENTAUR R/B 2.7 16:08:28 10° NW 16:12:40 53° SW 16:17:51 10° SSE
Cosmos 2263 Rocket 4.4 16:13:57 10° NW 16:16:38 13° NNW 16:19:20 10° N
Cosmos 2344 4.1 16:10:38 10° NW 16:17:43 44° NNE 16:26:30 10° E
Cosmos 1844 Rocket 4.2 16:12:56 10° WSW 16:17:48 30° NW 16:22:42 10° NNE
Cosmos 1802 Rocket 4.3 16:12:13 10° SSW 16:18:40 79° W 16:25:07 10° N
Iridium 4 Rocket 3.8 16:15:18 10° SSW 16:20:14 64° W 16:24:46 10° N
ARIANE 6 FM1 Upper Stage 4.3 16:17:10 10° WNW 16:20:17 22° NNW 16:23:25 10° NNE
SAR-Lupe-4 3.7 16:17:09 10° SSE 16:20:38 51° ENE 16:24:07 10° N
ISS -2.8 16:25:19 10° SW 16:28:25 36° SSE 16:30:57 14° E
USA 281 4.4 16:24:36 10° ENE 16:29:06 21° NE 16:33:44 10° N
Cosmos 1833 Rocket 3.9 16:24:18 10° NW 16:29:44 48° WSW 16:35:07 10° S
COSMOS 2406 3.9 16:24:42 10° NNW 16:29:51 33° NE 16:34:58 10° ESE
CZ-2D R/B 2.8 16:26:49 10° SSE 16:29:53 50° ENE 16:32:58 10° N
Cosmos 407 Rocket 3.8 16:26:19 10° S 16:31:15 47° ESE 16:36:11 10° NE
Cosmos 1484 Rocket 4.1 16:28:49 10° S 16:32:08 40° W 16:35:30 10° NNW
Cosmos 2016 Rocket 4.3 16:26:16 10° SSW 16:32:35 74° WNW 16:38:59 10° N
Cosmos 1812 3.2 16:30:48 10° SE 16:33:07 22° E 16:34:33 16° NE
Tsikada Rocket 4.3 16:28:29 10° NNW 16:34:55 77° W 16:41:15 10° S
IRS-P3 4.2 16:29:53 10° SE 16:35:05 56° ENE 16:40:18 10° N
TIMED 4.4 16:31:09 10° SSW 16:35:24 77° ESE 16:39:41 10° NNE
ERS-1 4.5 16:35:10 10° SSE 16:40:16 69° ENE 16:45:21 10° NNW
Cosmos 2084 Rocket 3.9 16:36:15 10° WSW 16:40:22 54° NW 16:44:07 12° NE
SMAP 3.2 16:37:35 10° SSE 16:42:14 83° WSW 16:46:56 10° NNW
Cosmos 44 Rocket 3.8 16:39:40 10° S 16:44:09 41° ESE 16:47:38 16° ENE
Cosmos 540 Rocket 3.4 16:39:11 10° NNW 16:44:22 86° ENE 16:49:29 10° SSE
SJ 16-02 2.5 16:43:03 10° SSE 16:46:25 23° E 16:47:54 19° ENE
SPOT 1/Viking Rocket 3.9 16:42:07 10° SE 16:46:59 43° ENE 16:51:54 10° N
Cosmos 1869 2.9 16:44:37 10° S 16:48:06 62° E 16:51:35 10° NNE
YAOGAN 1 3.3 16:45:10 10° SE 16:48:51 29° ENE 16:52:34 10° N
SL-16 R/B 3.1 16:45:52 10° NNE 16:52:02 60° WNW 16:58:09 10° SW
Cosmos 1763 Rocket 3.8 16:47:34 10° NNW 16:52:47 71° WSW 16:57:53 10° SSE
Meteor 2-3 Rocket 4.4 16:48:32 10° N 16:53:32 30° ENE 16:58:28 10° SE
Landsat 7 3.8 16:49:44 10° SSE 16:54:24 86° WSW 16:59:06 10° NNW
Spot 4 Rocket 4.3 16:53:06 10° SE 16:57:57 45° ENE 17:02:48 10° N
Nadezhda 4 Rocket 4.1 16:51:55 10° N 16:58:03 51° ENE 17:04:05 10° SSE
RESURS DK-1 3.0 16:54:38 10° NW 16:58:35 55° WSW 17:02:29 10° SSE
Cosmos 1140 Rocket 4.0 16:55:14 10° SW 17:00:20 59° WNW 17:05:27 10° NNE
Aureole 3 Rocket 2.3 16:58:09 10° S 17:01:05 53° E 17:03:44 14° NNE
CZ-4C R/B 3.5 16:57:54 10° WNW 17:02:20 30° NNW 17:06:53 14° NE
Resurs 1-3 4.0 16:59:10 10° SE 17:03:07 37° ENE 17:07:06 10° N
UNK 4.1 17:00:33 10° N 17:05:09 66° WNW 17:09:42 10° SSW
CZ-4 R/B 4.3 17:02:20 10° SSE 17:06:15 61° ENE 17:10:11 10° N
SJ-6F 4.3 17:02:23 10° SSE 17:06:18 86° WSW 17:10:16 10° NNW
Cosmos 304 Rocket 4.5 17:05:10 10° SSE 17:09:19 31° ESE 17:10:27 28° ENE
Cosmos 1400 Rocket 3.2 17:07:04 10° SSE 17:10:34 36° E 17:11:08 33° ENE
SJ-12 4.5 17:07:06 10° S 17:10:49 54° W 17:14:33 10° NNW
Cosmos 371 Rocket 4.0 17:06:45 10° SSE 17:10:58 31° ESE 17:12:04 28° ENE
Cosmos 1536 Rocket 3.5 17:07:18 10° N 17:11:43 61° ENE 17:16:03 10° SSE
SAR-Lupe-3 4.0 17:13:47 26° N 17:15:05 67° WNW 17:17:41 10° SSW
Helios 1A Rocket 4.0 17:16:48 21° SE 17:16:48 21° SE 17:18:20 10° SSE
Okean 2 Rocket 3.3 17:13:46 10° SSE 17:17:55 43° E 17:20:02 25° NE
Cosmos 489 Rocket 4.4 17:12:20 10° NNW 17:18:38 74° ENE 17:24:50 10° SSE
NOAA 6 4.1 17:21:09 10° SE 17:26:07 52° ENE 17:31:06 10° N
ATLAS CENTAUR R/B 3.5 17:25:01 10° NW 17:26:24 12° NNW 17:27:35 10° N
COSMO-SKYMED 1 2.7 17:26:49 43° E 17:27:15 44° E 17:31:12 10° S
SL-12 R/B(2) 4.4 17:19:23 10° SW 17:27:30 88° SE 17:35:47 17° NE
Geosat 4.2 17:25:22 30° ESE 17:27:31 49° NE 17:32:21 10° NNW
Resurs 01 Rocket 2.9 17:30:11 24° NNE 17:30:11 24° NNE 17:32:30 10° N
Cosmos 1943 Rocket 2.3 17:25:14 10° SW 17:30:51 77° WNW 17:35:17 17° NNE
Timation 2 Rocket 4.3 17:25:24 10° SW 17:32:18 78° WNW 17:38:22 14° NNE
Cosmos 841 Rocket 3.4 17:28:19 10° NNW 17:33:37 75° ENE 17:38:51 10° SSE
Cosmos 2058 3.4 17:29:43 10° NNW 17:33:38 58° W 17:37:32 10° S
Cosmos 2251 Rocket 3.4 17:29:28 10° SSW 17:34:46 86° ESE 17:38:36 20° NNE
SJ-7 4.0 17:32:39 10° SSE 17:36:20 86° ENE 17:40:03 10° NNW
BREEZE-M DEB (TANK) 2.7 17:35:29 10° WSW 17:38:15 65° SSE 17:39:49 40° E
Cosmos 2082 Rocket 2.7 17:33:15 10° NW 17:38:45 59° WSW 17:44:15 10° S
ATLAS 2AS CENTAUR R/B 2.9 17:33:17 10° NW 17:39:55 51° NE 17:42:14 37° E
Cosmos 1346 Rocket 3.9 17:36:41 10° N 17:38:39 28° N 17:38:39 28° N
IRAS Rocket 4.2 17:37:49 10° SSE 17:43:24 83° WSW 17:48:57 10° NNW
Cosmos 2278 Rocket 2.5 17:38:45 10° SW 17:44:23 66° WNW 17:48:33 19° NNE
MOS 1 Rocket 4.2 17:41:35 10° S 17:45:45 46° W 17:50:08 10° NNW
Cosmos 1464 Rocket 4.0 17:44:17 10° S 17:50:36 84° W 17:56:52 10° N
Cosmos 1634 Rocket 4.4 17:45:20 10° SSE 17:57:50 - NNE 17:50:01 38° ESE
CZ-2D R/B 4.1 17:47:22 10° S 17:51:27 55° W 17:55:37 10° NNW
Meteor 2-1 Rocket 4.3 17:46:28 10° S 17:52:17 62° E 17:57:32 13° NNE
Cosmos 2369 Rocket 4.1 17:49:14 10° SSE 17:50:09 14° SSE 17:50:09 14° SSE
Cosmos 1862 4.3 17:52:34 10° NNW 17:56:01 41° W 17:59:27 10° SSW
PSLV R/B 3.7 17:53:12 10° S 17:57:13 65° WSW 18:01:14 10° NNW
Cosmos 2151 Rocket 4.1 17:56:47 10° SSW 18:01:12 59° WNW 18:05:04 14° N
Cosmos 1190 Rocket 4.2 17:57:20 10° SSW 18:02:37 70° WNW 18:05:26 28° NNE
Cosmos 2034 Rocket 3.9 17:58:18 10° S 18:04:31 86° E 18:10:51 10° N
ISS -2.3 18:01:40 10° W 18:03:52 38° W 18:03:52 38° W
Cosmos 676 Rocket 3.9 18:00:22 10° SSW 18:05:40 83° ESE 18:06:43 59° NE
SKYMED 2 4.2 18:03:51 20° N 18:06:45 55° WNW 18:10:59 10° SSW
Okean 1 Rocket 3.1 18:03:26 10° SSW 18:07:50 75° WNW 18:08:25 63° NNW
Cosmos 1656 Rocket 3.7 18:02:53 10° SSW 18:08:00 60° SE 18:08:00 60° SE
Cosmos 220 Rocket 4.5 18:08:07 10° NNW 18:11:16 50° NW 18:11:16 50° NW
USA 281 3.2 18:11:29 55° E 18:12:31 62° NE 18:19:00 10° NNW
Sich 1 Rocket 3.9 18:09:06 10° SSW 18:13:36 66° WNW 18:14:56 44° NNW
COSMOS 2406 3.7 18:08:52 10° NW 18:14:26 57° WSW 18:19:01 15° S
Cosmos 1954 Rocket 4.2 18:09:48 10° SW 18:15:03 67° WNW 18:16:54 40° N
Cosmos 1932 4.4 18:09:29 10° SSW 18:15:48 68° SE 18:16:22 64° E
Cosmos 1092 Rocket 3.9 18:09:50 10° N 18:16:08 89° E 18:22:20 10° S
Cosmos 2026 Rocket 4.0 18:15:01 10° NNW 18:21:07 77° W 18:27:15 10° S
SJ 16-02 2.2 18:20:06 10° SW 18:24:15 46° WNW 18:24:29 46° NW
YAOGAN 1 4.1 18:20:43 10° SSW 18:24:37 35° W 18:28:34 10° NNW
Cosmos 44 Rocket 4.2 18:20:58 10° WSW 18:25:35 43° NW 18:26:14 41° NNW
Cosmos 2344 4.0 18:24:56 10° NW 18:32:49 76° SW 18:38:35 30° SSE
Cosmos 2297 Rocket 4.3 18:31:25 10° N 18:33:09 15° N 18:33:09 15° N
Meteor 2-3 Rocket 4.5 18:31:30 10° NNW 18:37:00 51° W 18:42:25 10° SSW
Cosmos 371 Rocket 4.5 18:46:31 10° SW 18:50:35 40° WNW 18:50:35 40° WNW
CZ-4C R/B 3.8 18:47:30 10° NW 18:51:49 27° N 18:51:49 27° N
Resurs 01 Rocket 4.0 19:07:36 18° NW 19:07:36 18° NW 19:08:59 10° NNW
Cosmos 1943 Rocket 4.2 19:11:21 10° W 19:15:31 21° NW 19:16:48 19° NNW
Cosmos 2278 Rocket 4.3 19:25:35 10° WNW 19:29:34 19° NNW 19:30:23 19° NNW
ATLAS 2AS CENTAUR R/B 3.4 19:24:22 10° NW 19:29:40 47° W 19:29:40 47° W
